WZZ5137 LHBP-EPGD

Flight info

Callsign WZZ5137
Flight time 1h 19m
Altitude 24000
Route LITKU Y301 KALIF/N0427F360 DCT BABKO DCT POLON N133 GRUDA Z95 OSLOG
Aircraft A320/M-SDE1E2E3FGIJ1J4RWXY/LB1

Departure

Time 2026-05-06 06:50
Airport Budapest Liszt Ferenc International Airport (LHBP)

Arrival

Time 2026-05-06 08:09
Airport Gdańsk Lech Wałęsa Airport (EPGD)
Time Latitude Longitude Altitude Speed Heading
2026-05-06 06:24 47.43535 19.26431 458 ft 0 kts 222°
2026-05-06 06:40 47.43535 19.26432 457 ft 1 kts 222°
2026-05-06 06:40 47.43546 19.26447 458 ft 2 kts 222°
2026-05-06 06:40 47.43559 19.26466 454 ft 3 kts 239°
2026-05-06 06:40 47.43565 19.26491 457 ft 3 kts 275°
2026-05-06 06:41 47.43560 19.26517 456 ft 3 kts 303°
2026-05-06 06:41 47.43548 19.26541 457 ft 3 kts 314°
2026-05-06 06:41 47.43536 19.26559 458 ft 1 kts 313°
2026-05-06 06:41 47.43535 19.26561 458 ft 0 kts 312°
2026-05-06 06:45 47.43535 19.26560 458 ft 1 kts 312°
2026-05-06 06:45 47.43548 19.26539 456 ft 6 kts 312°
2026-05-06 06:45 47.43585 19.26481 458 ft 9 kts 312°
2026-05-06 06:46 47.43634 19.26401 458 ft 12 kts 312°
2026-05-06 06:46 47.43680 19.26289 457 ft 14 kts 273°
2026-05-06 06:46 47.43675 19.26127 457 ft 17 kts 269°
2026-05-06 06:46 47.43725 19.25988 457 ft 15 kts 307°
2026-05-06 06:47 47.43690 19.25851 457 ft 17 kts 223°
2026-05-06 06:47 47.43598 19.25726 457 ft 19 kts 222°
2026-05-06 06:47 47.43495 19.25588 457 ft 21 kts 222°
2026-05-06 06:47 47.43382 19.25437 457 ft 23 kts 221°
2026-05-06 06:48 47.43300 19.25328 457 ft 24 kts 223°
2026-05-06 06:48 47.43182 19.25169 456 ft 24 kts 222°
2026-05-06 06:48 47.43086 19.25042 457 ft 13 kts 222°
2026-05-06 06:48 47.43080 19.24972 457 ft 8 kts 311°
2026-05-06 06:49 47.43142 19.24874 457 ft 31 kts 312°
2026-05-06 06:49 47.43466 19.24351 451 ft 103 kts 313°
2026-05-06 06:49 47.44067 19.23372 458 ft 153 kts 311°
2026-05-06 06:49 47.44810 19.22187 1024 ft 155 kts 308°
2026-05-06 06:50 47.45542 19.21027 1773 ft 154 kts 307°
2026-05-06 06:50 47.46301 19.19787 2190 ft 172 kts 307°
2026-05-06 06:50 47.47139 19.18414 2581 ft 189 kts 307°
2026-05-06 06:50 47.48081 19.16885 2959 ft 214 kts 307°
2026-05-06 06:51 47.49219 19.15257 3464 ft 241 kts 315°
2026-05-06 06:51 47.50590 19.13577 4078 ft 261 kts 317°
2026-05-06 06:51 47.52036 19.11883 4994 ft 269 kts 319°
2026-05-06 06:51 47.53517 19.10153 5938 ft 273 kts 319°
2026-05-06 06:52 47.55030 19.08366 6863 ft 277 kts 318°
2026-05-06 06:52 47.56537 19.06562 7764 ft 281 kts 317°
2026-05-06 06:52 47.58062 19.04714 8678 ft 285 kts 316°
2026-05-06 06:52 47.59601 19.02830 9584 ft 289 kts 316°
2026-05-06 06:53 47.61158 19.00918 10402 ft 294 kts 316°
2026-05-06 06:53 47.62987 18.99210 10701 ft 324 kts 335°
2026-05-06 06:53 47.65280 18.98646 11172 ft 346 kts
2026-05-06 06:53 47.67641 18.99516 11869 ft 357 kts 25°
2026-05-06 06:54 47.69666 19.01693 12600 ft 363 kts 41°
2026-05-06 06:54 47.71534 19.04241 13358 ft 367 kts 42°
2026-05-06 06:54 47.73413 19.06849 14047 ft 371 kts 42°
2026-05-06 06:54 47.75302 19.09492 14714 ft 374 kts 42°
2026-05-06 06:55 47.77200 19.12154 15370 ft 377 kts 42°
2026-05-06 06:55 47.79117 19.14839 16045 ft 380 kts 42°
2026-05-06 06:55 47.81048 19.17535 16722 ft 382 kts 42°
2026-05-06 06:55 47.82994 19.20250 17392 ft 385 kts 42°
2026-05-06 06:56 47.84958 19.22983 18045 ft 388 kts 42°
2026-05-06 06:56 47.86940 19.25741 18656 ft 391 kts 42°
2026-05-06 06:56 47.88936 19.28522 19252 ft 394 kts 42°
2026-05-06 06:56 47.90946 19.31327 19833 ft 397 kts 42°
2026-05-06 06:57 47.92962 19.34151 20415 ft 400 kts 42°
2026-05-06 06:57 47.94998 19.37012 20975 ft 403 kts 42°
2026-05-06 06:57 47.97044 19.39886 21513 ft 406 kts 42°
2026-05-06 06:57 47.99108 19.42789 22037 ft 409 kts 42°
2026-05-06 06:58 48.01214 19.45756 22560 ft 412 kts 42°
2026-05-06 06:58 48.03334 19.48744 23097 ft 415 kts 41°
2026-05-06 06:58 48.05466 19.51651 23638 ft 415 kts 37°
2026-05-06 06:58 48.07844 19.54094 23881 ft 414 kts 27°
2026-05-06 06:59 48.10421 19.55885 23933 ft 401 kts 17°
2026-05-06 06:59 48.13070 19.56953 23939 ft 391 kts
2026-05-06 06:59 48.15726 19.57757 23940 ft 389 kts
2026-05-06 06:59 48.18381 19.58533 23940 ft 389 kts
2026-05-06 07:00 48.21045 19.59295 23940 ft 390 kts
2026-05-06 07:00 48.23732 19.59722 23942 ft 387 kts 357°
2026-05-06 07:00 48.26409 19.59538 23942 ft 385 kts 353°
2026-05-06 07:00 48.29079 19.59270 23948 ft 385 kts 353°
2026-05-06 07:01 48.31750 19.59008 23938 ft 384 kts 353°
2026-05-06 07:01 48.34419 19.58749 23937 ft 384 kts 353°
2026-05-06 07:01 48.37090 19.58491 23938 ft 385 kts 353°
2026-05-06 07:01 48.39759 19.58236 23939 ft 385 kts 353°
2026-05-06 07:02 48.42435 19.57980 23942 ft 385 kts 353°
2026-05-06 07:02 48.45106 19.57726 23945 ft 385 kts 353°
2026-05-06 07:02 48.47819 19.57468 23947 ft 385 kts 353°
2026-05-06 07:02 48.50459 19.57217 23946 ft 385 kts 353°
2026-05-06 07:03 48.53196 19.56956 23998 ft 396 kts 353°
2026-05-06 07:03 48.55992 19.56692 24109 ft 409 kts 353°
2026-05-06 07:03 48.58875 19.56426 24233 ft 421 kts 353°
2026-05-06 07:03 48.61842 19.56154 24347 ft 433 kts 354°
2026-05-06 07:04 48.64879 19.55878 24469 ft 442 kts 354°
2026-05-06 07:04 48.67984 19.55595 24586 ft 451 kts 354°
2026-05-06 07:04 48.71154 19.55308 24714 ft 460 kts 354°
2026-05-06 07:04 48.74359 19.55016 24994 ft 463 kts 354°
2026-05-06 07:05 48.77578 19.54726 25419 ft 464 kts 354°
2026-05-06 07:05 48.80798 19.54441 25848 ft 464 kts 354°
2026-05-06 07:05 48.84024 19.54155 26318 ft 464 kts 354°
2026-05-06 07:05 48.87242 19.53866 26811 ft 463 kts 353°
2026-05-06 07:06 48.90456 19.53567 27327 ft 462 kts 353°
2026-05-06 07:06 48.93670 19.53265 27840 ft 462 kts 353°
2026-05-06 07:06 48.96917 19.52960 28392 ft 461 kts 353°
2026-05-06 07:06 49.00118 19.52660 28897 ft 461 kts 353°
2026-05-06 07:07 49.03321 19.52360 29407 ft 461 kts 353°
2026-05-06 07:07 49.06519 19.52059 29939 ft 460 kts 353°
2026-05-06 07:07 49.09710 19.51759 30402 ft 459 kts 353°
2026-05-06 07:07 49.12896 19.51464 30878 ft 458 kts 353°
2026-05-06 07:08 49.16073 19.51176 31379 ft 456 kts 353°
2026-05-06 07:08 49.19236 19.50888 31902 ft 454 kts 353°
2026-05-06 07:08 49.22384 19.50598 32419 ft 453 kts 353°
2026-05-06 07:08 49.25527 19.50305 32922 ft 452 kts 353°
2026-05-06 07:09 49.28657 19.50013 33436 ft 450 kts 353°
2026-05-06 07:09 49.31781 19.49721 33941 ft 449 kts 353°
2026-05-06 07:09 49.34890 19.49427 34389 ft 447 kts 353°
2026-05-06 07:09 49.37998 19.49133 34725 ft 448 kts 353°
2026-05-06 07:10 49.41114 19.48839 35061 ft 449 kts 353°
2026-05-06 07:10 49.44229 19.48545 35412 ft 448 kts 353°
2026-05-06 07:10 49.47339 19.48251 35750 ft 448 kts 353°
2026-05-06 07:11 49.53571 19.47663 35853 ft 448 kts 353°
2026-05-06 07:11 49.59798 19.47087 35851 ft 448 kts 353°
2026-05-06 07:12 49.66063 19.47348 35852 ft 451 kts 359°
2026-05-06 07:12 49.72330 19.47863 35843 ft 452 kts 360°
2026-05-06 07:13 49.78610 19.48385 35836 ft 452 kts 360°
2026-05-06 07:13 49.84910 19.48904 35840 ft 452 kts 360°
2026-05-06 07:14 49.91215 19.49409 35837 ft 452 kts 359°
2026-05-06 07:14 49.97503 19.49914 35837 ft 453 kts
2026-05-06 07:15 50.03803 19.50439 35846 ft 454 kts 360°
2026-05-06 07:15 50.10125 19.50967 35827 ft 455 kts 359°
2026-05-06 07:16 50.15431 19.51408 35834 ft 456 kts
2026-05-06 07:16 50.21774 19.51944 35821 ft 457 kts
2026-05-06 07:17 50.28130 19.52479 35815 ft 458 kts 360°
2026-05-06 07:17 50.34498 19.53012 35821 ft 458 kts 360°
2026-05-06 07:18 50.40861 19.53547 35828 ft 458 kts
2026-05-06 07:18 50.47233 19.54088 35825 ft 459 kts
2026-05-06 07:19 50.53610 19.54621 35812 ft 459 kts
2026-05-06 07:19 50.59991 19.55156 35810 ft 459 kts
2026-05-06 07:20 50.66369 19.55699 35809 ft 459 kts
2026-05-06 07:20 50.72751 19.56245 35810 ft 459 kts
2026-05-06 07:21 50.79179 19.56797 35831 ft 460 kts
2026-05-06 07:21 50.85572 19.57350 35804 ft 460 kts
2026-05-06 07:22 50.91975 19.57890 35803 ft 461 kts
2026-05-06 07:22 50.98387 19.58444 35792 ft 461 kts
2026-05-06 07:23 51.04801 19.58994 35782 ft 462 kts
2026-05-06 07:23 51.11221 19.59544 35788 ft 462 kts
2026-05-06 07:24 51.17644 19.60108 35788 ft 463 kts
2026-05-06 07:24 51.24074 19.60676 35789 ft 463 kts
2026-05-06 07:25 51.30508 19.61239 35781 ft 463 kts
2026-05-06 07:25 51.36933 19.61801 35785 ft 463 kts
2026-05-06 07:26 51.43359 19.62357 35786 ft 462 kts
2026-05-06 07:26 51.49782 19.62921 35780 ft 462 kts
2026-05-06 07:27 51.56202 19.63496 35775 ft 462 kts
2026-05-06 07:27 51.62667 19.64070 35790 ft 462 kts
2026-05-06 07:28 51.69099 19.64634 35777 ft 463 kts
2026-05-06 07:28 51.78749 19.65250 35769 ft 461 kts 353°
2026-05-06 07:29 51.84958 19.63212 35765 ft 454 kts 339°
2026-05-06 07:29 51.91020 19.60237 35764 ft 455 kts 339°
2026-05-06 07:30 51.97072 19.57259 35763 ft 455 kts 339°
2026-05-06 07:30 52.03130 19.54281 35760 ft 455 kts 339°
2026-05-06 07:31 52.09190 19.51283 35759 ft 455 kts 339°
2026-05-06 07:31 52.15244 19.48281 35765 ft 455 kts 339°
2026-05-06 07:32 52.21293 19.45283 35762 ft 454 kts 339°
2026-05-06 07:32 52.27336 19.42273 35763 ft 454 kts 339°
2026-05-06 07:33 52.33375 19.39261 35757 ft 454 kts 339°
2026-05-06 07:33 52.39427 19.36237 35733 ft 456 kts 339°
2026-05-06 07:34 52.42507 19.34691 35509 ft 457 kts 339°
2026-05-06 07:34 52.45538 19.33160 34486 ft 467 kts 339°
2026-05-06 07:34 52.48703 19.31559 33746 ft 470 kts 339°
2026-05-06 07:34 52.51825 19.29984 33081 ft 469 kts 340°
2026-05-06 07:35 52.54924 19.28423 32145 ft 463 kts 340°
2026-05-06 07:35 52.57985 19.26881 31355 ft 454 kts 340°
2026-05-06 07:35 52.60948 19.25392 30933 ft 437 kts 339°
2026-05-06 07:35 52.63811 19.23952 30477 ft 423 kts 339°
2026-05-06 07:36 52.66583 19.22555 30047 ft 411 kts 339°
2026-05-06 07:36 52.69278 19.21188 29602 ft 400 kts 339°
2026-05-06 07:36 52.71893 19.19854 29194 ft 388 kts 339°
2026-05-06 07:36 52.74477 19.18528 28805 ft 389 kts 339°
2026-05-06 07:37 52.77054 19.17201 28420 ft 388 kts 339°
2026-05-06 07:37 52.79627 19.15873 28052 ft 387 kts 339°
2026-05-06 07:37 52.82186 19.14554 27669 ft 384 kts 339°
2026-05-06 07:37 52.84731 19.13249 27296 ft 381 kts 339°
2026-05-06 07:38 52.87261 19.11956 26925 ft 379 kts 339°
2026-05-06 07:38 52.89772 19.10672 26547 ft 376 kts 339°
2026-05-06 07:38 52.92263 19.09395 26174 ft 374 kts 339°
2026-05-06 07:38 52.94774 19.08104 25798 ft 371 kts 339°
2026-05-06 07:39 52.97233 19.06839 25422 ft 370 kts 339°
2026-05-06 07:39 52.99691 19.05571 25024 ft 369 kts 339°
2026-05-06 07:39 53.02138 19.04304 24643 ft 368 kts 339°
2026-05-06 07:39 53.04576 19.03038 24243 ft 367 kts 339°
2026-05-06 07:40 53.07015 19.01770 23848 ft 367 kts 339°
2026-05-06 07:40 53.09447 19.00509 23428 ft 366 kts 339°
2026-05-06 07:40 53.11879 18.99250 22971 ft 365 kts 339°
2026-05-06 07:40 53.14298 18.97995 22567 ft 363 kts 339°
2026-05-06 07:41 53.16695 18.96747 22174 ft 360 kts 339°
2026-05-06 07:41 53.19082 18.95506 21741 ft 358 kts 339°
2026-05-06 07:41 53.21456 18.94270 21335 ft 356 kts 339°
2026-05-06 07:41 53.23848 18.93022 20938 ft 355 kts 339°
2026-05-06 07:42 53.26199 18.91797 20524 ft 353 kts 339°
2026-05-06 07:42 53.28541 18.90573 20113 ft 352 kts 339°
2026-05-06 07:42 53.30876 18.89350 19705 ft 351 kts 339°
2026-05-06 07:42 53.33207 18.88129 19296 ft 350 kts 339°
2026-05-06 07:43 53.35530 18.86908 18896 ft 350 kts 339°
2026-05-06 07:43 53.37851 18.85686 18488 ft 349 kts 339°
2026-05-06 07:43 53.40165 18.84469 18082 ft 349 kts 339°
2026-05-06 07:43 53.42479 18.83251 17629 ft 348 kts 339°
2026-05-06 07:44 53.44779 18.82036 17228 ft 346 kts 339°
2026-05-06 07:44 53.47066 18.80827 16839 ft 344 kts 339°
2026-05-06 07:44 53.49340 18.79624 16434 ft 342 kts 339°
2026-05-06 07:44 53.51615 18.78474 16031 ft 341 kts 344°
2026-05-06 07:45 53.53969 18.77932 15633 ft 342 kts 354°
2026-05-06 07:45 53.56341 18.77669 15227 ft 341 kts 354°
2026-05-06 07:45 53.57941 18.77489 14964 ft 341 kts 354°
2026-05-06 07:45 53.60301 18.77220 14572 ft 340 kts 354°
2026-05-06 07:46 53.62639 18.76952 14173 ft 339 kts 354°
2026-05-06 07:46 53.65011 18.76679 13774 ft 339 kts 355°
2026-05-06 07:46 53.67362 18.76409 13355 ft 338 kts 355°
2026-05-06 07:46 53.69708 18.76140 12954 ft 337 kts 355°
2026-05-06 07:47 53.72034 18.75873 12550 ft 332 kts 355°
2026-05-06 07:47 53.74284 18.75548 12169 ft 318 kts 349°
2026-05-06 07:47 53.76358 18.74542 11793 ft 304 kts 334°
2026-05-06 07:47 53.78171 18.72810 11605 ft 302 kts 321°
2026-05-06 07:48 53.79787 18.70480 11421 ft 307 kts 315°
2026-05-06 07:48 53.81381 18.68054 11228 ft 309 kts 315°
2026-05-06 07:48 53.82979 18.65626 11008 ft 308 kts 316°
2026-05-06 07:48 53.84573 18.63209 10805 ft 307 kts 316°
2026-05-06 07:49 53.86183 18.60764 10598 ft 307 kts 315°
2026-05-06 07:49 53.87748 18.58379 10395 ft 306 kts 315°
2026-05-06 07:49 53.89327 18.55965 10207 ft 306 kts 315°
2026-05-06 07:49 53.90928 18.53512 9991 ft 305 kts 315°
2026-05-06 07:50 53.92502 18.51091 9777 ft 305 kts 315°
2026-05-06 07:50 53.94074 18.48671 9589 ft 304 kts 315°
2026-05-06 07:50 53.95636 18.46271 9380 ft 303 kts 315°
2026-05-06 07:50 53.97200 18.43874 9180 ft 304 kts 315°
2026-05-06 07:51 53.98914 18.41757 8975 ft 306 kts 330°
2026-05-06 07:51 54.00849 18.40128 8768 ft 306 kts 333°
2026-05-06 07:51 54.02753 18.38542 8569 ft 304 kts 333°
2026-05-06 07:51 54.04652 18.36950 8366 ft 304 kts 333°
2026-05-06 07:52 54.06541 18.35363 8174 ft 302 kts 333°
2026-05-06 07:52 54.08396 18.33802 7977 ft 301 kts 333°
2026-05-06 07:52 54.10302 18.32195 7778 ft 302 kts 333°
2026-05-06 07:52 54.12177 18.30613 7579 ft 300 kts 334°
2026-05-06 07:53 54.14050 18.29028 7378 ft 299 kts 334°
2026-05-06 07:53 54.15903 18.27459 7177 ft 298 kts 333°
2026-05-06 07:53 54.17747 18.25897 6982 ft 295 kts 334°
2026-05-06 07:53 54.19616 18.24311 6790 ft 295 kts 334°
2026-05-06 07:54 54.21434 18.22767 6642 ft 293 kts 334°
2026-05-06 07:54 54.23254 18.21223 6513 ft 288 kts 334°
2026-05-06 07:54 54.25046 18.19839 6393 ft 277 kts 344°
2026-05-06 07:54 54.26901 18.19404 6257 ft 263 kts
2026-05-06 07:55 54.28645 18.19997 6142 ft 251 kts 26°
2026-05-06 07:55 54.30241 18.21158 6027 ft 249 kts 24°
2026-05-06 07:55 54.31867 18.22225 5877 ft 252 kts 14°
2026-05-06 07:55 54.33608 18.22060 5751 ft 255 kts 341°
2026-05-06 07:56 54.35078 18.20281 5611 ft 261 kts 306°
2026-05-06 07:56 54.35891 18.17516 5484 ft 260 kts 291°
2026-05-06 07:56 54.36577 18.14649 5354 ft 260 kts 291°
2026-05-06 07:56 54.37268 18.11783 5227 ft 260 kts 291°
2026-05-06 07:57 54.37955 18.08929 5090 ft 256 kts 291°
2026-05-06 07:57 54.38638 18.06094 4970 ft 258 kts 292°
2026-05-06 07:57 54.39327 18.03245 4985 ft 260 kts 291°
2026-05-06 07:57 54.40021 18.00381 5019 ft 261 kts 291°
2026-05-06 07:58 54.40713 17.97515 5030 ft 258 kts 292°
2026-05-06 07:58 54.41397 17.94683 5026 ft 256 kts 292°
2026-05-06 07:58 54.42081 17.91844 5029 ft 256 kts 292°
2026-05-06 07:58 54.42777 17.89045 5034 ft 254 kts 300°
2026-05-06 07:59 54.43933 17.86867 5030 ft 241 kts 333°
2026-05-06 07:59 54.45453 17.86057 5031 ft 218 kts
2026-05-06 07:59 54.46861 17.86503 5040 ft 197 kts 27°
2026-05-06 07:59 54.48108 17.87387 5041 ft 193 kts 27°
2026-05-06 08:00 54.49343 17.88276 5041 ft 192 kts 31°
2026-05-06 08:00 54.50326 17.89712 5040 ft 184 kts 60°
2026-05-06 08:00 54.50769 17.91750 5047 ft 178 kts 86°
2026-05-06 08:00 54.50602 17.93850 5048 ft 180 kts 111°
2026-05-06 08:01 54.50116 17.95835 5041 ft 181 kts 111°
2026-05-06 08:01 54.49629 17.97840 5036 ft 180 kts 112°
2026-05-06 08:01 54.49153 17.99814 5035 ft 178 kts 112°
2026-05-06 08:01 54.48678 18.01783 5036 ft 178 kts 111°
2026-05-06 08:02 54.48206 18.03747 5006 ft 178 kts 112°
2026-05-06 08:02 54.47727 18.05725 4738 ft 179 kts 111°
2026-05-06 08:02 54.47251 18.07688 4496 ft 177 kts 111°
2026-05-06 08:02 54.46782 18.09625 4268 ft 174 kts 111°
2026-05-06 08:03 54.46318 18.11533 4049 ft 172 kts 110°
2026-05-06 08:03 54.45856 18.13436 3826 ft 172 kts 111°
2026-05-06 08:03 54.45386 18.15381 3606 ft 171 kts 110°
2026-05-06 08:03 54.44920 18.17311 3425 ft 169 kts 110°
2026-05-06 08:04 54.44474 18.19148 3330 ft 163 kts 110°
2026-05-06 08:04 54.44045 18.20914 3202 ft 158 kts 110°
2026-05-06 08:04 54.43631 18.22637 3075 ft 153 kts 110°
2026-05-06 08:04 54.43233 18.24277 2954 ft 143 kts 109°
2026-05-06 08:05 54.42863 18.25792 2844 ft 134 kts 108°
2026-05-06 08:05 54.42506 18.27254 2749 ft 131 kts 108°
2026-05-06 08:05 54.42155 18.28691 2657 ft 130 kts 108°
2026-05-06 08:05 54.41807 18.30117 2556 ft 129 kts 109°
2026-05-06 08:06 54.41459 18.31541 2455 ft 130 kts 109°
2026-05-06 08:06 54.41112 18.32960 2236 ft 129 kts 109°
2026-05-06 08:06 54.40761 18.34390 2024 ft 128 kts 108°
2026-05-06 08:06 54.40418 18.35788 1836 ft 126 kts 108°
2026-05-06 08:07 54.40078 18.37167 1644 ft 126 kts 108°
2026-05-06 08:07 54.39848 18.38101 1499 ft 126 kts 109°
2026-05-06 08:07 54.39506 18.39492 1291 ft 127 kts 108°
2026-05-06 08:07 54.39156 18.40920 1088 ft 129 kts 109°
2026-05-06 08:08 54.38806 18.42342 912 ft 127 kts 107°
2026-05-06 08:08 54.38466 18.43737 714 ft 128 kts 105°
2026-05-06 08:08 54.38118 18.45132 519 ft 126 kts 105°
2026-05-06 08:08 54.37809 18.46447 451 ft 103 kts 112°
2026-05-06 08:09 54.37634 18.47138 458 ft 37 kts 112°
2026-05-06 08:09 54.37598 18.47515 462 ft 19 kts 86°
2026-05-06 08:09 54.37609 18.47671 463 ft 13 kts 75°
2026-05-06 08:09 54.37681 18.47692 462 ft 15 kts 291°
2026-05-06 08:10 54.37719 18.47496 460 ft 20 kts 292°
2026-05-06 08:10 54.37778 18.47255 456 ft 24 kts 293°
2026-05-06 08:10 54.37850 18.46966 453 ft 27 kts 291°
2026-05-06 08:10 54.37914 18.46710 452 ft 24 kts 292°
2026-05-06 08:11 54.37987 18.46583 452 ft 17 kts
2026-05-06 08:11 54.38068 18.46599 451 ft 12 kts 317°
2026-05-06 08:11 54.38106 18.46540 451 ft 7 kts
2026-05-06 08:11 54.38136 18.46559 451 ft 1 kts 20°